{"data":{"norad_id":55395,"intl_designator":"2023-014E","name":"STARLINK-5274","alt_names":[],"object_type":"PAYLOAD","status":"ACTIVE","operator":null,"country":"US","launch_date":"2023-01-31","launch_site_code":"AFWTR","launch_vehicle":null,"mission":null,"orbit_class":"UNKNOWN","rcs_meters":null,"size_class":null,"mass_kg":null,"dimensions":null,"purposes":["comms"],"wikipedia_slug":null,"has_3d_model":false,"image_url":null,"decayed_at":null,"tle_current":{"epoch":"2026-09-20T18:57:53.487360Z","epoch_age_seconds":71640,"freshness":"FRESH","line1":"1 55395U 23014E   26263.79020240 -.00013169  00000+0 -10960-2 0  9999","line2":"2 55395  69.9957 292.3651 0004811 273.5780  86.4829 14.98392923201288","mean_motion":14.98392923,"eccentricity":0.0004811,"inclination_deg":69.9957,"raan_deg":292.3651,"arg_perigee_deg":273.578,"mean_anomaly_deg":86.4829,"bstar":-0.001096,"rev_number":20128,"period_min":96.102963241238,"perigee_km":568.51766937825,"apogee_km":575.20495775556,"semimajor_km":6949.9983135669,"source":"CELESTRAK","updated_at":"2026-09-21T09:00:33.213641Z"}}}